Temperature
15 15 15 15 16 16 16 17 16 16 16 16 15 15 15 15 16 15 16 15 15 15 15 15 15 15 15 14 14 15 15 15 15 15 15 15 15 15
14 15 15 15 15 16 16 16 16 16 16 16 16 15 15 15 15 15 16 15 15 15 14 14 14 15 15 15 14 15 15 15 15 15 15 15 15 15
14 14 14 14 15 15 15 16 16 16 16 16 16 15 15 15 15 15 15 15 15 15 14 14 14 14 15 15 15 15 15 15 15 15 15 15 14 15
13 13 14 14 14 14 15 15 15 15 15 15 15 15 15 15 15 15 15 15 15 15 14 14 14 14 14 15 15 15 15 15 15 15 15 14 14 14
13 13 13 13 14 14 14 14 15 15 15 15 15 15 15 14 15 14 14 14 15 15 15 14 14 14 14 14 15 15 15 15 15 14 14 14 14 14
13 13 13 13 14 14 14 14 15 15 15 15 15 15 15 14 14 14 14 14 14 15 15 15 14 14 14 14 14 14 15 15 15 14 14 14 14 14
13 13 13 13 14 14 14 14 14 14 14 14 14 14 14 14 14 14 14 14 14 14 14 15 14 14 14 14 14 14 14 14 14 14 14 14 13 13
14 14 14 14 14 14 14 14 14 14 14 14 14 14 14 14 14 14 14 13 13 14 14 15 15 14 14 14 14 14 14 14 14 14 13 13 13 13
14 14 14 14 14 14 14 14 14 14 14 14 14 14 14 14 14 14 14 14 14 14 14 14 14 14 14 14 14 13 13 13 13 13 13 13 12 12
14 14 14 14 14 14 14 14 14 14 14 14 14 14 14 14 14 14 14 14 13 13 13 13 13 13 13 14 14 13 13 13 13 13 13 12 12 12
15 14 15 15 14 14 14 14 14 14 14 14 14 14 14 14 14 14 13 13 13 13 13 13 13 13 13 14 14 13 13 13 13 13 13 12 12 11
14 14 15 14 14 14 14 14 14 14 14 14 14 14 14 14 14 14 14 13 13 13 13 13 13 13 13 13 14 14 14 13 13 13 13 12 12 11
14 14 14 14 14 14 14 14 14 14 13 13 13 13 14 14 14 14 13 13 13 12 13 13 13 13 13 13 14 14 14 14 14 13 13 12 12 11
14 14 14 14 14 14 14 14 13 13 13 13 13 13 13 13 13 13 13 12 12 12 12 12 13 13 13 12 13 14 14 14 14 14 13 13 12 11
13 13 13 13 13 13 13 13 13 13 13 13 13 13 13 13 12 12 12 12 12 12 12 12 12 12 12 12 12 12 13 13 13 14 13 13 13 12
13 13 13 13 13 13 13 13 13 13 12 12 12 12 12 12 12 12 12 12 11 11 11 11 11 11 11 12 11 11 12 12 13 13 13 13 13 12
12 12 12 12 12 12 12 12 12 12 12 12 12 12 12 12 11 11 11 11 11 11 11 11 11 11 11 11 11 11 11 11 12 12 12 12 12 12
11 11 11 12 12 12 11 11 11 12 11 11 11 11 11 11 11 11 11 11 11 11 11 10 10 10 10 10 11 11 11 11 11 11 11 11 11 11
11 11 11 11 11 11 11 11 11 11 11 11 11 11 11 10 10 10 11 10 10 10 10 10 10 10 10 10 11 10 10 10 10 10 10 10 11 11
11 11 11 11 11 10 10 10 10 10 10 10 10 10 10 10 10 10 10 10 10 10 10 10 10 10 10 10 10 10 10 10 9 9 9 10 10 10
10 10 10 10 10 10 10 10 10 10 10 10 10 10 10 10 10 10 10 10 10 9 9 9 10 9 9 9 9 10 10 9 9 9 9 9 9 9
10 10 10 10 10 10 10 9 9 9 9 9 9 9 9 9 9 9 9 9 9 9 9 9 9 9 9 9 9 9 9 9 9 8 8 8 8 8
10 10 10 10 10 9 9 9 9 9 9 9 9 9 9 9 9 9 9 9 9 9 9 9 8 8 8 8 8 8 8 8 8 8 8 8 8 8
Wind_Speed
9 9 7 4 3 1 1 3 5 4 5 4 4 6 9 11 16 13 13 12 10 8 6 6 6 7 7 8 8 8 8 9 10 11 12 12 12 11
6 7 6 3 2 2 1 0 2 5 5 5 5 6 6 10 13 10 14 14 11 9 7 5 4 4 5 6 7 7 8 8 8 9 11 11 12 12
5 5 4 2 1 1 2 1 1 1 3 4 4 5 7 8 6 8 14 13 11 11 8 6 4 3 3 4 5 6 6 6 7 7 8 10 11 11
6 6 5 4 3 1 1 1 2 2 2 4 4 3 6 8 8 7 9 11 13 13 11 8 6 3 2 2 3 4 4 5 7 8 8 9 9 10
7 7 7 6 5 1 0 1 2 3 2 3 4 3 4 7 8 7 6 5 12 13 13 10 8 6 4 2 1 2 3 5 7 9 9 9 9 9
6 7 7 7 6 5 3 3 2 3 4 3 4 3 4 4 7 6 5 5 5 9 11 12 11 9 7 5 4 3 4 6 7 8 8 8 8 8
7 8 8 9 10 8 6 5 4 3 4 4 5 4 4 4 6 6 6 5 5 5 5 6 8 8 10 10 8 7 6 7 8 8 7 8 7 7
9 9 10 12 14 16 15 12 9 7 6 6 6 6 8 7 5 5 6 5 5 6 7 7 6 7 9 13 15 13 10 9 8 8 7 7 7 7
8 8 8 10 14 11 14 17 15 15 14 9 8 9 8 8 9 8 8 8 6 6 6 6 7 7 8 16 22 18 15 12 10 9 8 7 6 6
6 7 7 7 9 10 9 9 9 10 11 10 9 8 7 7 9 11 10 7 5 4 6 5 5 5 4 11 23 20 17 15 12 11 9 8 7 6
7 6 4 3 4 9 7 6 6 5 4 5 4 3 3 4 5 6 7 6 5 4 5 4 5 4 4 5 14 20 19 17 15 13 11 10 9 7
4 1 2 3 4 5 4 4 5 4 4 4 3 4 4 5 6 7 7 6 5 5 6 5 4 5 4 4 6 13 14 16 17 16 14 13 11 8
2 1 3 6 5 4 2 1 2 2 3 4 4 4 3 3 4 4 4 4 5 4 6 7 5 5 5 4 4 6 9 9 12 14 16 16 16 13
2 1 3 6 4 3 2 3 2 1 1 2 2 2 3 3 3 4 2 1 2 3 3 6 4 5 5 4 4 5 7 9 10 8 13 17 18 18
1 3 6 6 4 3 3 4 2 1 2 1 2 2 2 3 2 2 1 0 1 1 0 2 2 2 4 4 4 5 5 6 8 8 9 8 9 9
2 4 5 4 1 1 4 3 3 2 2 1 2 1 1 1 2 2 2 2 1 1 1 1 1 1 2 3 3 4 6 6 7 8 8 8 11 14
2 3 2 2 2 3 3 3 2 2 1 1 1 1 1 2 2 2 2 3 3 2 2 1 1 1 1 2 3 4 5 6 6 8 7 6 7 9
2 1 2 3 3 3 3 2 2 2 2 1 1 2 2 3 3 3 3 4 4 4 4 4 3 1 1 3 5 5 4 5 6 8 7 7 7 6
1 0 1 1 0 0 0 0 0 1 1 1 2 2 2 2 3 3 4 4 5 5 5 4 5 5 5 6 5 10 8 5 4 6 7 7 7 7
2 3 3 3 3 3 2 2 1 1 0 1 2 3 3 3 3 4 4 5 5 5 5 5 6 7 8 6 4 4 13 9 6 7 6 7 5 4
3 4 4 4 3 3 3 3 2 2 2 1 2 2 2 2 3 3 4 5 5 4 5 6 7 9 5 2 4 5 4 10 8 4 5 6 5 5
4 4 4 4 4 4 4 3 3 3 3 3 2 2 2 2 3 3 3 3 4 4 5 3 1 3 4 6 8 7 5 2 5 5 2 2 3 5
4 3 3 4 4 3 3 4 4 3 3 3 3 3 3 2 2 3 3 3 3 3 3 3 2 3 4 5 7 6 6 4 3 4 2 4 8 11
Wind_Direction
201 209 224 244 263 258 156 144 152 177 215 215 162 176 166 148 166 173 164 162 150 136 118 96 77 64 54 46 41 38 40 49 59 59 58 57 57 58
187 191 200 218 259 286 312 81 152 170 201 212 193 171 159 159 181 193 163 163 159 154 145 127 101 75 59 46 36 31 36 50 63 71 67 65 62 63
177 172 169 152 197 291 330 332 298 184 207 226 209 176 156 156 158 159 159 167 170 171 168 158 138 104 68 49 36 32 39 53 73 82 81 75 69 67
161 150 141 127 103 36 353 313 292 278 231 225 213 191 170 166 163 183 182 187 173 181 181 179 177 172 142 70 42 38 48 65 82 87 87 84 76 72
155 151 148 139 130 133 275 286 294 295 278 233 218 205 191 174 165 191 195 179 172 179 185 189 190 193 192 181 113 77 83 95 97 90 85 84 80 76
169 170 171 171 169 183 214 241 259 280 283 259 228 211 216 186 167 180 196 194 172 174 187 188 193 197 201 200 187 158 133 125 117 104 95 88 84 84
193 195 197 199 201 203 212 218 228 244 262 256 238 211 208 199 193 182 188 188 202 180 166 178 178 193 203 208 199 182 162 149 137 124 112 101 94 90
205 208 210 212 220 222 227 230 226 232 240 243 238 222 214 209 204 192 181 178 210 198 174 191 178 197 202 203 197 185 174 166 158 147 136 124 113 104
215 214 218 217 214 218 227 233 240 243 240 240 245 236 221 207 202 205 200 197 206 192 169 197 187 200 198 196 185 183 179 176 174 169 161 152 142 133
243 227 218 219 205 203 211 218 224 231 232 228 233 237 230 213 206 207 204 205 217 182 158 187 183 190 153 161 177 182 183 182 182 183 182 179 177 174
259 247 233 221 197 192 199 220 230 235 221 203 205 190 193 212 195 180 185 184 195 197 187 182 175 170 156 165 187 189 188 189 190 193 195 197 199 201
273 269 117 107 101 157 196 216 223 222 182 171 186 188 203 208 189 179 181 188 189 188 188 184 177 148 179 177 173 188 193 197 199 202 205 207 208 210
338 1 96 121 130 149 177 215 193 186 184 182 188 197 204 197 198 210 191 186 194 210 185 178 186 164 171 168 164 180 188 191 199 210 214 215 215 213
336 13 111 130 140 159 158 145 139 150 154 159 183 200 205 207 206 216 213 172 202 219 205 177 188 174 167 158 183 179 190 194 191 200 209 216 221 226
30 91 133 142 145 164 164 153 174 198 160 171 212 223 215 197 173 182 186 107 0 356 112 194 187 179 171 190 184 170 176 197 195 196 200 200 204 210
168 123 128 128 270 279 162 199 229 215 164 204 219 203 159 155 168 170 169 162 193 276 327 337 353 205 222 234 210 187 181 189 193 195 193 196 199 204
155 144 164 174 217 224 202 203 198 161 176 235 210 196 195 194 193 172 165 162 186 204 213 233 31 31 317 264 252 236 198 199 190 187 191 203 204 201
109 200 225 223 223 224 214 211 203 209 213 215 221 218 220 223 211 191 186 195 211 222 218 201 178 144 336 280 234 247 242 215 200 186 188 203 227 223
78 277 272 281 335 18 81 122 238 223 199 203 223 235 233 237 228 216 207 209 220 224 221 194 180 187 216 244 248 213 223 238 212 192 194 198 215 223
40 44 46 47 48 38 33 26 6 346 275 257 258 253 244 242 246 242 227 220 224 224 222 203 197 202 217 234 239 239 215 218 218 213 204 202 213 199
42 42 39 37 34 28 24 16 5 350 331 305 290 281 269 259 259 257 251 243 234 229 233 231 227 219 224 227 254 252 243 220 216 207 198 192 198 200
44 41 36 33 33 28 20 14 8 3 358 350 337 327 313 297 285 286 280 264 240 234 242 245 211 179 196 226 247 255 247 219 202 183 94 116 161 195
48 42 37 29 24 12 5 3 3 354 347 339 330 323 317 305 295 287 283 278 267 252 246 239 214 206 221 235 252 257 246 214 180 174 150 111 102 94
Height
1510 1514 1517 1520 1524 1528 1530 1532 1535 1536 1538 1540 1540 1541 1541 1541 1542 1542 1542 1542 1542 1542 1542 1541 1540 1539 1539 1539 1539 1539 1539 1539 1539 1539 1539 1538 1538 1538
1505 1508 1511 1515 1518 1522 1525 1528 1530 1532 1534 1536 1537 1538 1539 1539 1540 1540 1540 1541 1541 1541 1540 1540 1539 1538 1538 1538 1538 1538 1538 1538 1538 1538 1538 1538 1537 1537
1500 1502 1505 1509 1513 1516 1520 1523 1526 1529 1530 1533 1534 1535 1536 1537 1538 1538 1538 1539 1539 1539 1539 1538 1537 1537 1536 1536 1536 1537 1537 1537 1537 1537 1537 1537 1536 1536
1495 1497 1500 1504 1508 1512 1515 1518 1522 1524 1527 1529 1531 1532 1533 1534 1535 1536 1536 1536 1537 1537 1537 1536 1536 1535 1535 1535 1535 1535 1535 1535 1536 1536 1536 1536 1535 1535
1492 1494 1496 1499 1503 1507 1511 1514 1518 1520 1523 1525 1527 1529 1530 1531 1531 1533 1533 1534 1533 1534 1534 1534 1534 1533 1533 1533 1533 1533 1533 1533 1534 1534 1534 1534 1534 1534
1491 1493 1495 1498 1501 1504 1507 1511 1514 1516 1519 1521 1523 1524 1526 1527 1528 1529 1530 1531 1531 1531 1532 1532 1532 1531 1531 1531 1531 1531 1531 1531 1531 1531 1531 1532 1532 1532
1491 1493 1494 1497 1499 1502 1504 1507 1510 1512 1514 1516 1518 1520 1521 1523 1523 1524 1526 1527 1528 1528 1528 1529 1529 1529 1529 1529 1528 1528 1529 1529 1529 1529 1529 1529 1529 1529
1491 1492 1494 1495 1497 1499 1501 1504 1506 1508 1510 1512 1513 1515 1515 1517 1519 1520 1522 1523 1523 1525 1525 1525 1526 1526 1526 1526 1526 1526 1526 1526 1526 1526 1526 1526 1526 1526
1490 1491 1492 1493 1495 1496 1498 1500 1502 1503 1506 1507 1508 1509 1510 1512 1514 1515 1516 1517 1518 1520 1521 1521 1522 1522 1522 1522 1523 1524 1524 1523 1523 1523 1523 1523 1523 1523
1489 1490 1491 1492 1492 1493 1494 1496 1497 1499 1500 1501 1503 1504 1505 1507 1507 1509 1510 1513 1515 1517 1518 1518 1518 1519 1520 1519 1520 1521 1521 1520 1520 1520 1520 1520 1520 1521
1486 1488 1488 1489 1489 1490 1491 1492 1494 1495 1496 1497 1498 1498 1499 1501 1503 1504 1505 1507 1509 1510 1513 1514 1515 1516 1516 1516 1517 1518 1517 1517 1517 1516 1516 1517 1518 1518
1484 1484 1485 1486 1486 1487 1488 1489 1490 1491 1492 1493 1493 1494 1495 1496 1497 1498 1500 1502 1503 1505 1507 1510 1511 1512 1512 1512 1513 1514 1514 1514 1513 1513 1513 1514 1515 1516
1480 1481 1481 1482 1483 1484 1484 1485 1487 1488 1489 1489 1490 1490 1491 1491 1492 1494 1495 1497 1499 1500 1502 1505 1506 1507 1508 1508 1508 1510 1511 1511 1510 1510 1510 1511 1512 1513
1477 1478 1478 1479 1480 1480 1481 1482 1484 1485 1486 1486 1487 1487 1487 1488 1488 1489 1490 1492 1494 1496 1498 1499 1501 1502 1503 1504 1504 1505 1506 1507 1507 1507 1507 1507 1508 1509
1474 1475 1476 1476 1477 1477 1478 1480 1481 1482 1483 1483 1484 1484 1484 1484 1485 1485 1486 1487 1489 1490 1492 1493 1495 1497 1499 1500 1501 1501 1501 1502 1502 1503 1503 1504 1504 1505
1472 1473 1473 1474 1474 1475 1476 1477 1478 1479 1480 1481 1481 1482 1482 1482 1482 1482 1483 1484 1485 1486 1487 1489 1490 1492 1494 1495 1497 1496 1497 1498 1498 1498 1499 1499 1500 1501
1469 1470 1471 1472 1472 1473 1474 1475 1476 1477 1478 1478 1479 1479 1479 1479 1480 1480 1480 1481 1482 1482 1483 1484 1485 1486 1487 1489 1490 1492 1492 1492 1493 1495 1495 1495 1495 1496
1468 1469 1470 1471 1472 1473 1473 1474 1475 1476 1476 1476 1477 1477 1477 1477 1477 1478 1478 1478 1478 1479 1479 1480 1481 1482 1482 1483 1485 1485 1487 1487 1488 1489 1490 1491 1491 1492
1467 1468 1469 1470 1471 1472 1472 1473 1474 1474 1474 1475 1475 1475 1475 1475 1475 1475 1475 1475 1475 1475 1476 1476 1477 1477 1477 1477 1477 1480 1480 1481 1482 1483 1483 1485 1486 1488
1467 1468 1469 1470 1470 1471 1471 1472 1472 1472 1472 1472 1472 1472 1473 1472 1472 1472 1472 1472 1471 1471 1472 1472 1472 1472 1472 1472 1472 1472 1474 1475 1476 1476 1477 1479 1481 1484
1468 1469 1469 1470 1470 1470 1470 1470 1471 1471 1471 1470 1470 1470 1470 1470 1469 1469 1468 1468 1468 1467 1467 1467 1467 1467 1467 1467 1466 1465 1467 1468 1469 1470 1471 1473 1474 1476
1469 1469 1469 1470 1469 1469 1469 1469 1469 1469 1468 1468 1468 1467 1467 1466 1466 1465 1465 1464 1463 1462 1462 1462 1461 1461 1461 1460 1459 1459 1460 1460 1461 1462 1464 1466 1466 1467
1470 1470 1470 1470 1469 1469 1468 1468 1467 1466 1466 1465 1464 1464 1463 1462 1461 1461 1460 1459 1458 1458 1457 1456 1455 1455 1454 1454 1453 1452 1452 1452 1453 1454 1455 1456 1459 1461